Regional Weather Roundup
Issued by NWS Little Rock, AR

Home | Current Version | Previous Version | Text Only | Print | Product List | Glossary On
Versions: 1 2 3 4 5 6 7 8 9 10 11 12 13 14 15 16 17 18 19 20 21 22 23 24 25 26 27 28 29 30 31 32 33 34 35 36 37 38 39 40 41 42 43 44 45 46 47 48 49 50
018
ASUS44 KLZK 262305
RWRLZK

WEATHER ROUNDUP FOR ARKANSAS
NATIONAL WEATHER SERVICE LITTLE ROCK AR
600 PM CDT MON SEP 26 2016

NOTE: "FAIR" INDICATES FEW OR NO CLOUDS BELOW 12,000 FEET WITH NO
SIGNIFICANT WEATHER AND/OR OBSTRUCTIONS TO VISIBILITY.

ARZ001-003-010-029-270000-
NORTHWEST ARKANSAS

CITY           SKY/WX    TMP DP  RH WIND       PRES   REMARKS
FAYETTEVILLE   SUNNY     69  45  41 N5        30.15S
FORT SMITH     SUNNY     78  43  28 NE7       30.10S
HARRISON       SUNNY     71  43  36 N6        30.14F
BENTONVILLE    SUNNY     70  41  35 N7        30.16F
ROGERS         SUNNY     68  46  45 N5        30.17S
SILOAM SPGS    SUNNY     72  41  33 N7        30.17S
HIGHFILL       SUNNY     72  45  37 N10       30.16F
SPRINGDALE     SUNNY     72  43  35 N9        30.17F
$$

ARZ004-005-016-270000-
NORTH CENTRAL ARKANSAS

CITY           SKY/WX    TMP DP  RH WIND       PRES   REMARKS
BATESVILLE     SUNNY     73  54  49 CALM      30.09F
FLIPPIN        SUNNY     73  43  33 N3        30.10S
MTN HOME       SUNNY     72  45  37 VRB3      30.11F
$$

ARZ040-041-270000-
WEST CENTRAL ARKANSAS

CITY           SKY/WX    TMP DP  RH WIND       PRES   REMARKS
MENA           CLOUDY   N/A N/A N/A CALM      30.12F
MOUNT IDA      CLOUDY    69  56  62 CALM      30.09F
$$

ARZ009-017-025-026-028-270000-
NORTHEAST ARKANSAS

CITY           SKY/WX    TMP DP  RH WIND       PRES   REMARKS
CORNING          N/A     73  54  49 N7        30.09S
JONESBORO      CLEAR     73  52  47 N3        30.08F
NEWPORT        SUNNY     72  55  55 NE6       30.09F HAZE
WALNUT RIDGE   CLEAR     73  50  43 N7        30.08S
BLYTHEVILLE    PTCLDY    72  55  55 VRB5      30.08S
$$

ARZ022-023-033-042-044-270000-
CENTRAL ARKANSAS

CITY           SKY/WX    TMP DP  RH WIND       PRES   REMARKS
LITTLE ROCK    MOSUNNY   75  52  44 N8        30.08F
JACKSONVILLE   MOSUNNY   74  55  51 N6        30.08F
SEARCY         SUNNY     74  51  44 NE9       30.10F
HOT SPRINGS    CLOUDY    72  53  51 N5        30.09F
RUSSELLVILLE   SUNNY     73  53  49 S3        30.09F
$$

ARZ036-270000-
EAST ARKANSAS

CITY           SKY/WX    TMP DP  RH WIND       PRES   REMARKS
WEST MEMPHIS   MOCLDY    71  48  43 NE14      30.06S
$$

ARZ050-053-066-070-073-270000-
SOUTHWEST ARKANSAS

CITY           SKY/WX    TMP DP  RH WIND       PRES   REMARKS
ARKADELPHIA    FAIR      70  58  65 N8        30.08F
TEXARKANA      PTSUNNY   73  56  54 N9        30.07F
EL DORADO      MOSUNNY   75  62  64 N5        30.04F
DE QUEEN       CLOUDY    70  56  61 NE6       30.08F
$$

ARZ056-057-069-270000-
SOUTHEAST ARKANSAS

CITY           SKY/WX    TMP DP  RH WIND       PRES   REMARKS
PINE BLUFF     SUNNY     73  53  49 N12       30.07S
STUTTGART      SUNNY     72  52  49 N16       30.08F
MONTICELLO     CLOUDY    75  58  55 N7        30.04F

$$






USA.gov is the U.S. government's official web portal to all federal, state and local government web resources and services.